GEFSGL_prec_meanprecacc_072.txt.gz
Total_Precipitation_Accumulation
0.02 0.03 0.07 0.16 0.21 0.27 0.42 0.40 0.25 0.19 0.17 0.16 0.17 0.19 0.20 0.23 0.32 0.48 0.68 0.80 0.91 0.96 0.98 1.03 1.06 1.13 1.16 1.09 1.15 1.20 1.30 1.42 1.28 1.06 1.11 1.20 1.05 0.79 0.61 0.51 0.41 0.40 0.38
0.02 0.02 0.05 0.15 0.20 0.23 0.30 0.33 0.26 0.21 0.18 0.15 0.14 0.13 0.12 0.15 0.24 0.40 0.57 0.73 0.87 0.99 1.02 1.02 0.93 0.93 1.02 1.07 1.12 1.16 1.19 1.31 1.25 1.17 1.15 1.24 1.19 1.02 0.82 0.60 0.43 0.35 0.32
0.02 0.03 0.05 0.07 0.08 0.10 0.12 0.16 0.20 0.22 0.24 0.21 0.18 0.17 0.21 0.27 0.34 0.44 0.50 0.62 0.77 0.86 0.89 0.87 0.84 0.87 0.88 0.97 1.02 1.06 1.08 1.10 1.15 1.16 1.19 1.30 1.32 1.15 0.91 0.70 0.51 0.43 0.39
0.02 0.03 0.04 0.05 0.04 0.05 0.07 0.12 0.17 0.21 0.22 0.21 0.21 0.25 0.31 0.38 0.41 0.41 0.44 0.51 0.57 0.64 0.69 0.67 0.67 0.72 0.77 0.82 0.85 0.88 0.94 1.00 1.04 1.07 1.16 1.30 1.33 1.31 1.07 0.82 0.61 0.46 0.41
0.04 0.09 0.09 0.07 0.06 0.06 0.08 0.10 0.12 0.13 0.13 0.18 0.23 0.27 0.33 0.36 0.35 0.38 0.42 0.39 0.46 0.46 0.43 0.46 0.48 0.52 0.59 0.68 0.71 0.74 0.81 0.86 0.93 1.01 1.11 1.27 1.30 1.33 1.16 0.91 0.73 0.58 0.46
0.08 0.14 0.17 0.14 0.08 0.06 0.06 0.08 0.10 0.11 0.13 0.18 0.22 0.25 0.26 0.24 0.25 0.26 0.27 0.27 0.31 0.36 0.36 0.34 0.32 0.39 0.45 0.50 0.56 0.62 0.70 0.77 0.85 0.93 1.04 1.16 1.24 1.21 1.14 1.05 0.90 0.70 0.50
0.13 0.11 0.18 0.20 0.10 0.06 0.07 0.09 0.12 0.14 0.17 0.22 0.25 0.26 0.27 0.29 0.18 0.13 0.11 0.16 0.23 0.31 0.36 0.38 0.28 0.22 0.29 0.37 0.44 0.47 0.51 0.59 0.71 0.84 0.93 1.04 1.19 1.23 1.22 1.14 1.05 0.87 0.63
0.16 0.13 0.19 0.21 0.13 0.13 0.15 0.17 0.19 0.23 0.27 0.31 0.31 0.32 0.36 0.33 0.21 0.12 0.09 0.11 0.20 0.27 0.33 0.36 0.33 0.27 0.28 0.32 0.41 0.43 0.42 0.41 0.49 0.62 0.73 0.93 1.23 1.41 1.38 1.36 1.30 1.18 0.94
0.15 0.14 0.21 0.28 0.24 0.24 0.26 0.29 0.33 0.37 0.39 0.39 0.40 0.41 0.43 0.42 0.29 0.17 0.14 0.17 0.26 0.30 0.33 0.34 0.34 0.30 0.24 0.23 0.32 0.40 0.43 0.43 0.44 0.55 0.66 0.83 1.06 1.37 1.51 1.49 1.49 1.29 1.05
0.16 0.18 0.24 0.37 0.42 0.40 0.39 0.42 0.44 0.52 0.54 0.54 0.51 0.49 0.51 0.54 0.44 0.24 0.19 0.26 0.37 0.40 0.45 0.44 0.38 0.35 0.29 0.20 0.27 0.34 0.38 0.40 0.42 0.44 0.51 0.60 0.76 1.03 1.29 1.28 1.24 1.22 0.97
0.20 0.24 0.30 0.44 0.58 0.56 0.56 0.56 0.58 0.61 0.67 0.73 0.73 0.70 0.67 0.64 0.56 0.31 0.22 0.31 0.42 0.50 0.49 0.50 0.46 0.38 0.29 0.22 0.23 0.30 0.32 0.37 0.47 0.51 0.54 0.60 0.70 0.86 1.03 1.13 1.16 1.12 1.00
0.28 0.32 0.37 0.51 0.55 0.59 0.67 0.72 0.80 0.83 0.85 0.86 0.89 0.85 0.84 0.79 0.63 0.42 0.25 0.28 0.42 0.60 0.62 0.60 0.58 0.49 0.37 0.30 0.24 0.23 0.25 0.31 0.43 0.53 0.57 0.59 0.62 0.67 0.79 0.95 1.10 1.13 1.06
0.38 0.39 0.44 0.52 0.65 0.80 0.85 0.82 0.88 0.96 1.01 1.03 1.03 0.98 0.95 0.99 0.83 0.50 0.35 0.31 0.39 0.59 0.75 0.80 0.69 0.56 0.48 0.39 0.34 0.29 0.27 0.29 0.37 0.44 0.49 0.51 0.55 0.61 0.71 0.88 1.06 1.20 1.17
0.45 0.43 0.48 0.57 0.67 0.81 0.96 0.99 1.04 1.07 1.08 1.13 1.14 1.06 1.05 1.13 1.06 0.75 0.53 0.43 0.43 0.54 0.67 0.72 0.69 0.67 0.61 0.53 0.44 0.36 0.30 0.31 0.35 0.38 0.45 0.52 0.60 0.73 0.77 0.78 0.85 0.99 1.15
0.52 0.47 0.48 0.55 0.65 0.74 0.87 0.99 1.02 1.04 0.98 1.00 1.05 1.01 1.02 1.12 1.05 0.82 0.70 0.64 0.59 0.61 0.70 0.78 0.81 0.80 0.70 0.62 0.54 0.47 0.43 0.41 0.39 0.43 0.49 0.58 0.60 0.65 0.75 0.77 0.75 0.75 0.83
0.70 0.60 0.54 0.54 0.62 0.69 0.79 0.83 0.74 0.73 0.71 0.70 0.74 0.70 0.72 0.89 0.91 0.72 0.60 0.62 0.62 0.60 0.68 0.78 0.83 0.84 0.76 0.66 0.58 0.52 0.50 0.46 0.43 0.45 0.49 0.55 0.59 0.59 0.63 0.73 0.78 0.73 0.67
0.92 0.77 0.65 0.60 0.61 0.65 0.75 0.83 0.85 0.75 0.67 0.61 0.59 0.52 0.49 0.70 0.81 0.70 0.59 0.55 0.52 0.53 0.62 0.69 0.71 0.75 0.76 0.67 0.58 0.54 0.52 0.49 0.48 0.50 0.50 0.52 0.57 0.59 0.61 0.66 0.74 0.76 0.69
1.00 0.88 0.74 0.70 0.69 0.66 0.70 0.79 0.87 0.94 0.90 0.73 0.58 0.49 0.44 0.58 0.70 0.67 0.58 0.51 0.50 0.51 0.56 0.61 0.64 0.66 0.70 0.65 0.57 0.55 0.59 0.61 0.56 0.56 0.56 0.54 0.54 0.55 0.57 0.61 0.65 0.69 0.66
0.94 0.87 0.78 0.75 0.75 0.69 0.65 0.72 0.79 0.87 0.95 0.90 0.73 0.58 0.51 0.60 0.68 0.64 0.54 0.47 0.49 0.46 0.47 0.51 0.56 0.62 0.64 0.61 0.58 0.59 0.61 0.63 0.56 0.54 0.58 0.59 0.53 0.53 0.52 0.55 0.61 0.67 0.67
0.77 0.63 0.61 0.68 0.70 0.67 0.66 0.70 0.78 0.86 0.92 0.89 0.78 0.65 0.53 0.57 0.64 0.61 0.52 0.49 0.47 0.43 0.40 0.45 0.50 0.53 0.57 0.58 0.60 0.62 0.60 0.64 0.62 0.54 0.55 0.60 0.53 0.51 0.49 0.48 0.55 0.57 0.55
0.67 0.53 0.43 0.49 0.60 0.64 0.68 0.74 0.83 0.90 0.91 0.83 0.69 0.54 0.44 0.43 0.52 0.49 0.47 0.48 0.45 0.43 0.42 0.42 0.45 0.48 0.48 0.52 0.55 0.58 0.57 0.59 0.60 0.53 0.51 0.56 0.53 0.52 0.53 0.49 0.49 0.54 0.52
0.63 0.53 0.44 0.45 0.52 0.56 0.66 0.78 0.85 0.84 0.78 0.70 0.60 0.49 0.45 0.43 0.48 0.49 0.50 0.47 0.42 0.40 0.37 0.36 0.37 0.40 0.42 0.43 0.45 0.47 0.49 0.49 0.50 0.49 0.47 0.51 0.54 0.52 0.54 0.52 0.50 0.54 0.56
0.57 0.44 0.36 0.36 0.39 0.42 0.54 0.72 0.76 0.68 0.58 0.53 0.51 0.47 0.45 0.45 0.44 0.45 0.46 0.43 0.41 0.38 0.32 0.32 0.35 0.36 0.39 0.37 0.34 0.35 0.38 0.39 0.37 0.38 0.42 0.45 0.50 0.51 0.50 0.50 0.50 0.49 0.52
0.51 0.38 0.27 0.24 0.28 0.37 0.50 0.65 0.64 0.52 0.44 0.41 0.41 0.41 0.40 0.39 0.38 0.37 0.39 0.40 0.37 0.36 0.34 0.32 0.33 0.33 0.33 0.34 0.31 0.30 0.31 0.30 0.29 0.33 0.37 0.40 0.43 0.49 0.48 0.48 0.51 0.48 0.49
0.48 0.39 0.29 0.24 0.27 0.38 0.52 0.59 0.49 0.38 0.33 0.32 0.31 0.33 0.35 0.35 0.35 0.35 0.37 0.37 0.35 0.35 0.34 0.29 0.29 0.30 0.28 0.26 0.26 0.26 0.25 0.23 0.25 0.31 0.38 0.41 0.41 0.46 0.47 0.44 0.49 0.51 0.47
0.44 0.39 0.33 0.28 0.30 0.39 0.48 0.49 0.40 0.32 0.30 0.28 0.28 0.29 0.30 0.32 0.32 0.31 0.33 0.32 0.31 0.31 0.27 0.23 0.21 0.22 0.21 0.19 0.17 0.16 0.15 0.17 0.20 0.25 0.33 0.39 0.42 0.45 0.47 0.46 0.48 0.51 0.46

GEFSGL_prec_meanprecacc_078.txt.gz
Total_Precipitation_Accumulation
0.02 0.03 0.07 0.17 0.21 0.27 0.42 0.40 0.25 0.19 0.18 0.17 0.18 0.19 0.21 0.24 0.33 0.50 0.70 0.82 0.93 0.98 1.00 1.05 1.09 1.16 1.19 1.12 1.17 1.22 1.32 1.44 1.31 1.07 1.11 1.22 1.08 0.82 0.65 0.57 0.49 0.49 0.47
0.02 0.02 0.05 0.15 0.20 0.23 0.31 0.34 0.26 0.21 0.18 0.16 0.15 0.14 0.13 0.16 0.25 0.42 0.59 0.75 0.90 1.01 1.04 1.05 0.96 0.97 1.07 1.12 1.15 1.19 1.22 1.35 1.29 1.20 1.16 1.25 1.23 1.06 0.87 0.66 0.49 0.42 0.42
0.02 0.03 0.05 0.07 0.08 0.10 0.12 0.16 0.20 0.23 0.24 0.21 0.19 0.18 0.22 0.28 0.36 0.45 0.52 0.64 0.80 0.89 0.92 0.91 0.87 0.91 0.92 1.01 1.08 1.10 1.11 1.13 1.19 1.21 1.21 1.32 1.34 1.18 0.95 0.75 0.57 0.50 0.46
0.02 0.03 0.04 0.05 0.04 0.05 0.08 0.12 0.18 0.21 0.23 0.21 0.21 0.26 0.32 0.39 0.43 0.43 0.46 0.54 0.60 0.67 0.72 0.71 0.70 0.76 0.81 0.87 0.90 0.93 0.98 1.04 1.09 1.11 1.19 1.32 1.35 1.34 1.12 0.88 0.68 0.55 0.50
0.04 0.09 0.09 0.07 0.06 0.06 0.08 0.10 0.13 0.14 0.14 0.18 0.23 0.28 0.34 0.38 0.36 0.39 0.44 0.41 0.47 0.48 0.46 0.49 0.51 0.55 0.62 0.71 0.73 0.77 0.86 0.92 0.97 1.07 1.15 1.31 1.34 1.37 1.21 0.98 0.82 0.69 0.57
0.08 0.14 0.17 0.14 0.08 0.06 0.06 0.08 0.10 0.11 0.14 0.19 0.23 0.26 0.28 0.25 0.25 0.26 0.27 0.27 0.31 0.37 0.38 0.37 0.35 0.41 0.46 0.51 0.56 0.62 0.71 0.79 0.88 0.99 1.09 1.21 1.30 1.27 1.21 1.13 1.00 0.81 0.62
0.13 0.11 0.18 0.20 0.10 0.06 0.07 0.09 0.13 0.14 0.18 0.23 0.26 0.27 0.29 0.31 0.19 0.13 0.11 0.16 0.24 0.31 0.37 0.41 0.30 0.24 0.32 0.41 0.48 0.49 0.52 0.59 0.71 0.86 0.96 1.08 1.25 1.30 1.31 1.23 1.15 1.00 0.77
0.16 0.13 0.19 0.21 0.13 0.13 0.15 0.17 0.20 0.24 0.28 0.32 0.32 0.33 0.37 0.35 0.22 0.12 0.09 0.12 0.20 0.28 0.34 0.39 0.37 0.32 0.32 0.37 0.47 0.51 0.48 0.46 0.52 0.63 0.73 0.94 1.27 1.48 1.48 1.46 1.42 1.33 1.10
0.15 0.14 0.21 0.28 0.24 0.24 0.26 0.29 0.34 0.38 0.39 0.40 0.42 0.42 0.45 0.44 0.31 0.17 0.14 0.18 0.27 0.31 0.35 0.38 0.38 0.35 0.28 0.24 0.35 0.44 0.48 0.48 0.47 0.56 0.66 0.83 1.06 1.39 1.55 1.56 1.60 1.42 1.20
0.16 0.18 0.24 0.37 0.42 0.40 0.39 0.42 0.44 0.52 0.55 0.55 0.52 0.51 0.53 0.57 0.46 0.24 0.19 0.26 0.37 0.41 0.48 0.48 0.40 0.36 0.30 0.21 0.29 0.39 0.43 0.46 0.49 0.51 0.56 0.62 0.77 1.04 1.29 1.31 1.31 1.33 1.12
0.20 0.24 0.30 0.44 0.58 0.57 0.56 0.56 0.58 0.62 0.68 0.74 0.74 0.71 0.70 0.67 0.58 0.31 0.22 0.32 0.43 0.51 0.51 0.53 0.50 0.39 0.29 0.22 0.24 0.33 0.36 0.42 0.54 0.60 0.64 0.70 0.78 0.90 1.05 1.14 1.19 1.19 1.10
0.28 0.32 0.37 0.51 0.55 0.59 0.67 0.73 0.81 0.85 0.86 0.88 0.92 0.88 0.87 0.83 0.65 0.43 0.25 0.28 0.42 0.60 0.63 0.62 0.62 0.50 0.37 0.30 0.24 0.23 0.26 0.31 0.45 0.58 0.64 0.67 0.71 0.75 0.85 1.00 1.14 1.18 1.15
0.38 0.39 0.44 0.52 0.65 0.80 0.85 0.83 0.89 0.98 1.02 1.04 1.04 0.99 0.96 1.02 0.87 0.51 0.35 0.31 0.39 0.59 0.76 0.80 0.70 0.56 0.48 0.40 0.34 0.29 0.27 0.29 0.39 0.47 0.54 0.57 0.62 0.70 0.83 1.01 1.18 1.32 1.28
0.46 0.44 0.48 0.57 0.67 0.82 0.97 0.99 1.05 1.08 1.09 1.14 1.15 1.07 1.06 1.15 1.10 0.80 0.57 0.46 0.45 0.55 0.69 0.74 0.70 0.67 0.61 0.54 0.45 0.37 0.30 0.32 0.38 0.42 0.50 0.60 0.70 0.85 0.92 0.94 1.00 1.14 1.27
0.53 0.47 0.48 0.56 0.66 0.74 0.87 0.99 1.02 1.04 0.98 1.00 1.05 1.01 1.02 1.13 1.07 0.83 0.71 0.66 0.62 0.64 0.71 0.80 0.83 0.84 0.75 0.67 0.59 0.53 0.49 0.47 0.44 0.48 0.57 0.66 0.71 0.78 0.88 0.92 0.93 0.94 0.97
0.71 0.60 0.54 0.54 0.62 0.70 0.79 0.83 0.75 0.73 0.71 0.70 0.74 0.70 0.72 0.89 0.91 0.72 0.60 0.62 0.62 0.60 0.68 0.78 0.84 0.88 0.83 0.75 0.69 0.64 0.62 0.58 0.54 0.56 0.60 0.65 0.70 0.72 0.78 0.90 0.95 0.91 0.84
0.93 0.77 0.66 0.60 0.61 0.65 0.75 0.83 0.86 0.76 0.68 0.62 0.59 0.52 0.50 0.71 0.82 0.70 0.59 0.55 0.52 0.54 0.62 0.70 0.73 0.81 0.84 0.77 0.70 0.66 0.64 0.63 0.64 0.64 0.62 0.64 0.69 0.73 0.77 0.83 0.90 0.93 0.87
1.01 0.89 0.75 0.71 0.69 0.67 0.71 0.79 0.88 0.96 0.94 0.77 0.60 0.50 0.44 0.58 0.71 0.67 0.58 0.51 0.50 0.52 0.58 0.64 0.70 0.75 0.81 0.77 0.69 0.67 0.71 0.75 0.71 0.69 0.68 0.66 0.67 0.69 0.73 0.77 0.81 0.84 0.83
0.95 0.88 0.79 0.76 0.76 0.69 0.65 0.72 0.80 0.88 0.98 0.94 0.75 0.63 0.54 0.61 0.69 0.64 0.54 0.48 0.50 0.50 0.53 0.59 0.66 0.72 0.76 0.73 0.72 0.73 0.75 0.77 0.70 0.68 0.71 0.72 0.66 0.67 0.67 0.72 0.78 0.84 0.85
0.80 0.66 0.63 0.69 0.70 0.67 0.66 0.70 0.79 0.88 0.95 0.93 0.82 0.69 0.57 0.60 0.68 0.66 0.56 0.53 0.52 0.49 0.47 0.53 0.60 0.65 0.69 0.70 0.75 0.77 0.74 0.78 0.77 0.69 0.70 0.75 0.67 0.64 0.63 0.62 0.69 0.71 0.69
0.69 0.55 0.45 0.50 0.60 0.64 0.68 0.74 0.84 0.91 0.94 0.86 0.73 0.58 0.48 0.45 0.55 0.55 0.56 0.56 0.53 0.51 0.50 0.50 0.54 0.58 0.59 0.63 0.69 0.72 0.72 0.75 0.76 0.68 0.66 0.72 0.67 0.65 0.65 0.61 0.62 0.68 0.67
0.65 0.54 0.45 0.46 0.52 0.57 0.66 0.78 0.86 0.86 0.81 0.74 0.66 0.56 0.50 0.47 0.52 0.53 0.57 0.55 0.51 0.48 0.44 0.43 0.45 0.50 0.52 0.54 0.57 0.61 0.65 0.65 0.67 0.65 0.63 0.66 0.68 0.64 0.65 0.64 0.61 0.67 0.71
0.58 0.45 0.37 0.37 0.40 0.44 0.56 0.73 0.78 0.72 0.63 0.60 0.58 0.54 0.53 0.52 0.50 0.52 0.54 0.52 0.49 0.44 0.39 0.39 0.41 0.44 0.49 0.47 0.45 0.48 0.54 0.54 0.51 0.53 0.60 0.61 0.64 0.64 0.63 0.64 0.62 0.61 0.66
0.51 0.38 0.28 0.25 0.29 0.38 0.52 0.68 0.68 0.58 0.52 0.52 0.49 0.49 0.47 0.46 0.44 0.45 0.47 0.47 0.45 0.43 0.41 0.41 0.41 0.39 0.41 0.45 0.43 0.40 0.41 0.38 0.38 0.45 0.52 0.56 0.60 0.66 0.63 0.61 0.64 0.59 0.63
0.48 0.39 0.30 0.25 0.28 0.39 0.55 0.64 0.56 0.47 0.44 0.42 0.38 0.41 0.41 0.41 0.40 0.41 0.42 0.43 0.41 0.42 0.41 0.38 0.38 0.38 0.35 0.34 0.35 0.33 0.30 0.25 0.28 0.37 0.48 0.56 0.58 0.64 0.63 0.58 0.62 0.63 0.61
0.44 0.40 0.34 0.30 0.33 0.44 0.54 0.56 0.48 0.43 0.42 0.38 0.37 0.37 0.38 0.38 0.37 0.37 0.38 0.38 0.38 0.38 0.32 0.29 0.28 0.29 0.29 0.27 0.22 0.18 0.16 0.17 0.20 0.27 0.38 0.49 0.57 0.61 0.62 0.62 0.62 0.65 0.61

GEFSGL_prec_meanprecacc_084.txt.gz
Total_Precipitation_Accumulation
0.02 0.03 0.07 0.17 0.21 0.27 0.42 0.40 0.25 0.19 0.18 0.17 0.18 0.19 0.21 0.24 0.33 0.50 0.70 0.82 0.93 0.98 1.00 1.05 1.09 1.17 1.19 1.12 1.17 1.22 1.32 1.45 1.32 1.07 1.11 1.23 1.09 0.83 0.66 0.59 0.52 0.52 0.50
0.02 0.02 0.05 0.15 0.20 0.23 0.31 0.34 0.26 0.21 0.18 0.16 0.15 0.14 0.13 0.16 0.25 0.42 0.59 0.75 0.90 1.01 1.04 1.06 0.97 0.97 1.07 1.12 1.15 1.19 1.23 1.36 1.30 1.20 1.16 1.25 1.23 1.06 0.87 0.67 0.51 0.43 0.44
0.02 0.03 0.05 0.07 0.08 0.10 0.12 0.16 0.20 0.23 0.24 0.21 0.19 0.19 0.22 0.28 0.36 0.45 0.52 0.64 0.80 0.89 0.93 0.91 0.88 0.91 0.92 1.02 1.08 1.10 1.12 1.13 1.20 1.21 1.21 1.32 1.34 1.19 0.96 0.76 0.58 0.52 0.48
0.02 0.03 0.04 0.05 0.04 0.05 0.08 0.12 0.18 0.21 0.23 0.21 0.21 0.26 0.32 0.40 0.43 0.43 0.46 0.54 0.60 0.67 0.72 0.71 0.70 0.76 0.82 0.87 0.90 0.93 0.99 1.04 1.10 1.12 1.19 1.32 1.35 1.34 1.13 0.89 0.69 0.57 0.53
0.04 0.09 0.09 0.07 0.06 0.06 0.08 0.10 0.13 0.14 0.14 0.18 0.23 0.28 0.34 0.38 0.36 0.39 0.44 0.41 0.47 0.48 0.46 0.49 0.51 0.55 0.62 0.72 0.73 0.77 0.86 0.92 0.97 1.07 1.15 1.31 1.34 1.37 1.22 0.99 0.84 0.71 0.60
0.08 0.14 0.17 0.14 0.08 0.06 0.06 0.08 0.10 0.11 0.14 0.19 0.23 0.26 0.28 0.25 0.25 0.26 0.27 0.27 0.31 0.37 0.38 0.37 0.35 0.41 0.46 0.52 0.57 0.62 0.72 0.79 0.88 0.99 1.09 1.21 1.30 1.27 1.22 1.14 1.01 0.83 0.65
0.13 0.11 0.18 0.20 0.10 0.06 0.07 0.09 0.13 0.14 0.18 0.23 0.26 0.27 0.29 0.31 0.19 0.13 0.11 0.16 0.24 0.31 0.37 0.41 0.30 0.24 0.33 0.42 0.49 0.50 0.53 0.60 0.72 0.86 0.96 1.09 1.25 1.31 1.32 1.23 1.15 1.01 0.80
0.16 0.13 0.19 0.21 0.13 0.13 0.15 0.17 0.20 0.24 0.28 0.32 0.32 0.33 0.37 0.35 0.22 0.12 0.09 0.12 0.20 0.28 0.34 0.39 0.37 0.32 0.32 0.38 0.48 0.51 0.49 0.47 0.53 0.64 0.74 0.94 1.27 1.48 1.48 1.46 1.42 1.33 1.12
0.15 0.14 0.21 0.28 0.24 0.24 0.26 0.29 0.34 0.38 0.39 0.40 0.42 0.42 0.45 0.44 0.31 0.17 0.14 0.18 0.27 0.31 0.35 0.38 0.38 0.35 0.28 0.24 0.35 0.44 0.48 0.49 0.47 0.56 0.67 0.83 1.06 1.39 1.55 1.57 1.60 1.42 1.21
0.16 0.18 0.24 0.37 0.42 0.40 0.39 0.42 0.44 0.52 0.55 0.55 0.52 0.51 0.53 0.57 0.46 0.24 0.19 0.26 0.37 0.41 0.48 0.48 0.40 0.36 0.30 0.21 0.30 0.39 0.43 0.46 0.49 0.51 0.56 0.62 0.77 1.04 1.29 1.31 1.31 1.33 1.13
0.20 0.24 0.30 0.44 0.58 0.57 0.56 0.56 0.58 0.62 0.68 0.74 0.74 0.71 0.70 0.68 0.58 0.31 0.22 0.32 0.43 0.51 0.51 0.53 0.50 0.39 0.29 0.22 0.24 0.33 0.36 0.42 0.54 0.61 0.65 0.70 0.79 0.90 1.05 1.15 1.19 1.19 1.11
0.28 0.32 0.38 0.51 0.55 0.59 0.67 0.73 0.81 0.85 0.86 0.88 0.92 0.88 0.87 0.83 0.65 0.43 0.25 0.28 0.42 0.61 0.63 0.62 0.62 0.50 0.37 0.30 0.24 0.23 0.26 0.31 0.45 0.58 0.64 0.67 0.71 0.75 0.85 1.00 1.15 1.18 1.16
0.39 0.40 0.45 0.53 0.66 0.81 0.86 0.83 0.89 0.98 1.02 1.05 1.04 0.99 0.97 1.02 0.87 0.51 0.35 0.31 0.39 0.59 0.76 0.80 0.70 0.56 0.48 0.40 0.34 0.29 0.27 0.29 0.39 0.47 0.54 0.57 0.62 0.70 0.84 1.02 1.20 1.34 1.30
0.46 0.44 0.48 0.58 0.68 0.82 0.97 1.00 1.05 1.08 1.10 1.14 1.15 1.07 1.06 1.16 1.10 0.80 0.57 0.46 0.45 0.55 0.69 0.74 0.70 0.67 0.61 0.54 0.45 0.37 0.30 0.32 0.38 0.42 0.50 0.60 0.71 0.86 0.93 0.95 1.02 1.17 1.29
0.53 0.48 0.48 0.56 0.66 0.74 0.87 0.99 1.02 1.04 0.99 1.01 1.06 1.03 1.03 1.13 1.07 0.84 0.71 0.66 0.62 0.64 0.71 0.80 0.83 0.84 0.75 0.67 0.60 0.53 0.49 0.47 0.44 0.48 0.57 0.66 0.71 0.78 0.88 0.94 0.95 0.96 1.00
0.72 0.62 0.55 0.54 0.62 0.70 0.80 0.83 0.75 0.74 0.72 0.72 0.76 0.71 0.72 0.90 0.92 0.73 0.61 0.63 0.62 0.60 0.68 0.78 0.84 0.88 0.83 0.75 0.70 0.64 0.63 0.59 0.55 0.56 0.60 0.66 0.70 0.72 0.79 0.91 0.98 0.95 0.88
0.97 0.81 0.68 0.62 0.62 0.66 0.76 0.84 0.87 0.77 0.69 0.63 0.61 0.53 0.50 0.71 0.83 0.71 0.60 0.56 0.52 0.54 0.62 0.70 0.73 0.81 0.85 0.78 0.71 0.66 0.65 0.64 0.65 0.65 0.63 0.65 0.70 0.74 0.78 0.85 0.93 0.97 0.92
1.04 0.92 0.77 0.73 0.71 0.69 0.72 0.81 0.90 0.98 0.95 0.77 0.61 0.51 0.45 0.59 0.72 0.70 0.60 0.52 0.51 0.52 0.58 0.65 0.71 0.75 0.81 0.78 0.70 0.68 0.72 0.76 0.72 0.70 0.70 0.68 0.69 0.71 0.75 0.79 0.84 0.88 0.89
0.98 0.91 0.81 0.79 0.79 0.72 0.67 0.74 0.81 0.89 0.99 0.95 0.77 0.64 0.56 0.64 0.72 0.68 0.57 0.49 0.51 0.51 0.53 0.60 0.67 0.73 0.76 0.74 0.73 0.74 0.76 0.78 0.72 0.70 0.73 0.75 0.68 0.69 0.70 0.76 0.83 0.89 0.93
0.82 0.67 0.65 0.71 0.72 0.69 0.68 0.71 0.80 0.89 0.97 0.95 0.84 0.72 0.61 0.64 0.72 0.71 0.60 0.55 0.54 0.50 0.48 0.54 0.61 0.66 0.70 0.72 0.76 0.78 0.76 0.80 0.80 0.71 0.72 0.77 0.69 0.66 0.66 0.66 0.75 0.77 0.75
0.70 0.57 0.47 0.52 0.62 0.67 0.70 0.76 0.87 0.94 0.97 0.90 0.76 0.62 0.53 0.51 0.60 0.60 0.61 0.61 0.56 0.53 0.53 0.52 0.56 0.60 0.61 0.66 0.71 0.75 0.75 0.77 0.79 0.71 0.68 0.74 0.69 0.67 0.68 0.64 0.65 0.73 0.73
0.66 0.55 0.46 0.47 0.53 0.58 0.68 0.80 0.89 0.89 0.85 0.78 0.70 0.61 0.56 0.52 0.56 0.57 0.61 0.60 0.55 0.52 0.48 0.47 0.48 0.52 0.54 0.56 0.60 0.65 0.68 0.68 0.69 0.68 0.66 0.69 0.70 0.67 0.68 0.67 0.65 0.72 0.77
0.58 0.45 0.37 0.37 0.41 0.44 0.57 0.75 0.81 0.74 0.66 0.64 0.63 0.61 0.60 0.59 0.56 0.57 0.59 0.57 0.54 0.49 0.42 0.42 0.43 0.46 0.50 0.49 0.48 0.52 0.57 0.57 0.53 0.56 0.64 0.66 0.68 0.68 0.67 0.68 0.67 0.66 0.72
0.51 0.39 0.28 0.25 0.29 0.39 0.54 0.71 0.71 0.61 0.57 0.58 0.58 0.58 0.57 0.55 0.53 0.53 0.55 0.55 0.51 0.47 0.45 0.43 0.42 0.41 0.42 0.46 0.45 0.43 0.43 0.42 0.41 0.48 0.56 0.61 0.64 0.71 0.68 0.67 0.68 0.64 0.68
0.48 0.39 0.30 0.25 0.29 0.41 0.59 0.68 0.60 0.53 0.51 0.50 0.46 0.49 0.52 0.53 0.52 0.51 0.51 0.50 0.47 0.48 0.45 0.40 0.40 0.39 0.36 0.36 0.37 0.34 0.31 0.27 0.29 0.40 0.51 0.60 0.62 0.68 0.68 0.64 0.68 0.69 0.67
0.45 0.41 0.35 0.31 0.34 0.46 0.58 0.61 0.55 0.50 0.51 0.47 0.46 0.47 0.51 0.52 0.50 0.47 0.46 0.44 0.44 0.42 0.35 0.31 0.29 0.30 0.30 0.28 0.23 0.19 0.17 0.17 0.21 0.28 0.40 0.51 0.59 0.64 0.66 0.68 0.69 0.72 0.67

GEFSGL_prec_meanprecacc_090.txt.gz
Total_Precipitation_Accumulation
0.02 0.03 0.07 0.17 0.21 0.27 0.42 0.40 0.25 0.19 0.18 0.17 0.18 0.19 0.21 0.24 0.33 0.50 0.70 0.82 0.93 0.98 1.00 1.05 1.09 1.17 1.19 1.12 1.17 1.22 1.32 1.45 1.32 1.07 1.11 1.23 1.09 0.83 0.66 0.59 0.52 0.52 0.50
0.02 0.02 0.05 0.15 0.20 0.23 0.31 0.34 0.26 0.21 0.18 0.16 0.15 0.14 0.13 0.16 0.25 0.42 0.59 0.75 0.90 1.01 1.04 1.06 0.97 0.97 1.07 1.12 1.15 1.19 1.23 1.36 1.30 1.20 1.16 1.25 1.23 1.06 0.87 0.67 0.51 0.43 0.44
0.02 0.03 0.05 0.07 0.08 0.10 0.12 0.16 0.20 0.23 0.24 0.21 0.19 0.19 0.22 0.28 0.36 0.45 0.52 0.64 0.80 0.89 0.93 0.91 0.88 0.91 0.92 1.02 1.08 1.10 1.12 1.13 1.20 1.21 1.21 1.32 1.34 1.19 0.96 0.76 0.58 0.52 0.48
0.02 0.03 0.04 0.05 0.04 0.05 0.08 0.12 0.18 0.21 0.23 0.21 0.21 0.26 0.32 0.40 0.43 0.43 0.46 0.54 0.60 0.67 0.72 0.71 0.70 0.76 0.82 0.87 0.90 0.93 0.99 1.04 1.10 1.12 1.19 1.32 1.35 1.34 1.13 0.89 0.69 0.57 0.53
0.04 0.09 0.09 0.07 0.06 0.06 0.08 0.10 0.13 0.14 0.14 0.18 0.23 0.28 0.34 0.38 0.36 0.39 0.44 0.41 0.47 0.48 0.46 0.49 0.51 0.55 0.62 0.72 0.73 0.77 0.86 0.92 0.97 1.07 1.15 1.31 1.34 1.37 1.22 0.99 0.84 0.71 0.60
0.08 0.14 0.17 0.14 0.08 0.06 0.06 0.08 0.10 0.11 0.14 0.19 0.23 0.26 0.28 0.25 0.25 0.26 0.27 0.27 0.31 0.37 0.38 0.37 0.35 0.41 0.46 0.52 0.57 0.62 0.72 0.80 0.88 0.99 1.09 1.21 1.30 1.27 1.22 1.14 1.01 0.83 0.65
0.13 0.12 0.18 0.20 0.10 0.06 0.07 0.09 0.13 0.14 0.18 0.23 0.26 0.27 0.29 0.31 0.19 0.13 0.11 0.16 0.24 0.31 0.37 0.41 0.30 0.24 0.33 0.42 0.49 0.50 0.53 0.60 0.72 0.86 0.96 1.09 1.25 1.31 1.32 1.23 1.15 1.01 0.80
0.16 0.13 0.19 0.22 0.13 0.13 0.15 0.17 0.20 0.24 0.28 0.32 0.32 0.33 0.37 0.35 0.22 0.12 0.09 0.12 0.20 0.28 0.34 0.39 0.37 0.32 0.32 0.38 0.48 0.51 0.49 0.47 0.53 0.64 0.74 0.94 1.27 1.48 1.48 1.46 1.42 1.33 1.12
0.15 0.15 0.21 0.28 0.24 0.24 0.26 0.29 0.34 0.38 0.39 0.40 0.42 0.42 0.45 0.44 0.31 0.17 0.14 0.18 0.27 0.31 0.35 0.38 0.38 0.35 0.28 0.24 0.35 0.44 0.48 0.49 0.47 0.56 0.67 0.83 1.06 1.39 1.55 1.57 1.60 1.42 1.21
0.16 0.18 0.24 0.37 0.43 0.40 0.40 0.43 0.45 0.52 0.55 0.55 0.52 0.51 0.53 0.57 0.47 0.24 0.19 0.26 0.37 0.41 0.48 0.48 0.40 0.36 0.30 0.21 0.30 0.39 0.43 0.46 0.49 0.51 0.56 0.62 0.77 1.04 1.29 1.31 1.31 1.34 1.13
0.22 0.25 0.31 0.45 0.59 0.58 0.57 0.57 0.59 0.62 0.69 0.74 0.74 0.72 0.70 0.68 0.58 0.31 0.23 0.32 0.43 0.51 0.52 0.53 0.50 0.39 0.29 0.22 0.24 0.33 0.36 0.42 0.54 0.61 0.65 0.70 0.79 0.90 1.05 1.15 1.19 1.19 1.11
0.31 0.34 0.40 0.53 0.57 0.61 0.69 0.74 0.82 0.86 0.87 0.89 0.92 0.88 0.87 0.83 0.65 0.44 0.25 0.28 0.43 0.61 0.63 0.62 0.62 0.50 0.37 0.30 0.24 0.23 0.26 0.31 0.45 0.58 0.64 0.67 0.71 0.75 0.85 1.00 1.15 1.18 1.16
0.42 0.43 0.47 0.55 0.68 0.82 0.87 0.84 0.90 0.99 1.03 1.05 1.05 0.99 0.97 1.02 0.87 0.51 0.35 0.32 0.40 0.60 0.76 0.80 0.70 0.56 0.48 0.40 0.34 0.29 0.27 0.29 0.39 0.47 0.54 0.57 0.62 0.70 0.84 1.02 1.20 1.34 1.30
0.49 0.46 0.50 0.60 0.69 0.83 0.98 1.00 1.06 1.09 1.10 1.15 1.15 1.08 1.07 1.16 1.10 0.80 0.57 0.47 0.46 0.56 0.69 0.74 0.70 0.67 0.61 0.54 0.45 0.37 0.30 0.32 0.38 0.42 0.50 0.60 0.71 0.86 0.93 0.95 1.02 1.17 1.29
0.56 0.50 0.51 0.58 0.68 0.77 0.90 1.01 1.04 1.06 1.01 1.03 1.07 1.03 1.04 1.14 1.08 0.85 0.72 0.67 0.63 0.65 0.72 0.80 0.83 0.84 0.75 0.67 0.60 0.53 0.49 0.47 0.44 0.48 0.57 0.66 0.71 0.78 0.88 0.94 0.95 0.97 1.00
0.76 0.66 0.60 0.59 0.66 0.73 0.83 0.86 0.77 0.76 0.74 0.74 0.78 0.73 0.74 0.91 0.93 0.74 0.62 0.64 0.64 0.62 0.69 0.79 0.85 0.89 0.84 0.76 0.70 0.64 0.63 0.59 0.55 0.56 0.60 0.66 0.70 0.73 0.79 0.91 0.98 0.95 0.88
1.01 0.85 0.72 0.66 0.66 0.69 0.78 0.86 0.88 0.78 0.70 0.64 0.61 0.54 0.51 0.72 0.83 0.72 0.61 0.57 0.54 0.55 0.63 0.71 0.74 0.81 0.85 0.78 0.72 0.66 0.65 0.64 0.65 0.65 0.63 0.65 0.70 0.74 0.79 0.86 0.93 0.98 0.92
1.06 0.94 0.79 0.75 0.73 0.70 0.74 0.83 0.91 0.99 0.95 0.78 0.61 0.52 0.46 0.60 0.73 0.71 0.62 0.54 0.52 0.54 0.59 0.66 0.72 0.76 0.82 0.79 0.70 0.68 0.72 0.76 0.72 0.70 0.70 0.68 0.69 0.72 0.76 0.81 0.85 0.89 0.90
0.98 0.91 0.82 0.79 0.80 0.73 0.68 0.74 0.81 0.89 0.99 0.95 0.77 0.64 0.57 0.64 0.73 0.69 0.58 0.51 0.53 0.53 0.56 0.62 0.68 0.75 0.78 0.75 0.74 0.75 0.76 0.79 0.72 0.70 0.74 0.75 0.68 0.70 0.71 0.77 0.84 0.91 0.95
0.82 0.67 0.65 0.72 0.73 0.70 0.68 0.72 0.80 0.89 0.97 0.95 0.84 0.72 0.62 0.65 0.73 0.72 0.62 0.57 0.56 0.53 0.51 0.56 0.64 0.68 0.72 0.74 0.78 0.80 0.77 0.80 0.80 0.72 0.73 0.78 0.70 0.67 0.67 0.67 0.76 0.79 0.78
0.70 0.57 0.47 0.52 0.62 0.67 0.70 0.76 0.87 0.94 0.97 0.90 0.77 0.63 0.54 0.52 0.61 0.61 0.63 0.63 0.59 0.56 0.55 0.54 0.58 0.62 0.63 0.67 0.73 0.76 0.76 0.78 0.80 0.72 0.69 0.75 0.71 0.68 0.70 0.66 0.68 0.76 0.76
0.66 0.55 0.46 0.47 0.53 0.58 0.68 0.80 0.89 0.90 0.85 0.79 0.71 0.62 0.58 0.54 0.58 0.59 0.63 0.62 0.58 0.55 0.51 0.50 0.51 0.55 0.57 0.59 0.62 0.66 0.69 0.69 0.70 0.69 0.67 0.71 0.72 0.69 0.70 0.69 0.69 0.76 0.81
0.58 0.45 0.37 0.37 0.41 0.44 0.57 0.75 0.81 0.75 0.67 0.64 0.64 0.62 0.61 0.61 0.59 0.59 0.61 0.60 0.57 0.52 0.47 0.47 0.48 0.50 0.54 0.52 0.50 0.53 0.58 0.59 0.56 0.58 0.66 0.68 0.70 0.71 0.69 0.71 0.71 0.70 0.77
0.51 0.39 0.28 0.25 0.29 0.39 0.54 0.71 0.71 0.62 0.57 0.59 0.59 0.60 0.60 0.58 0.57 0.58 0.59 0.59 0.56 0.53 0.50 0.49 0.47 0.45 0.45 0.49 0.48 0.45 0.46 0.44 0.44 0.50 0.58 0.65 0.68 0.75 0.72 0.71 0.72 0.68 0.73
0.48 0.39 0.30 0.25 0.29 0.41 0.59 0.68 0.61 0.53 0.53 0.53 0.51 0.53 0.56 0.58 0.59 0.59 0.58 0.58 0.56 0.56 0.53 0.48 0.45 0.43 0.39 0.38 0.39 0.36 0.32 0.28 0.30 0.41 0.52 0.62 0.65 0.71 0.72 0.68 0.73 0.73 0.73
0.45 0.41 0.35 0.31 0.34 0.46 0.58 0.62 0.56 0.52 0.54 0.52 0.49 0.51 0.55 0.59 0.59 0.56 0.55 0.53 0.53 0.51 0.43 0.38 0.35 0.35 0.33 0.31 0.25 0.21 0.18 0.18 0.22 0.29 0.40 0.52 0.61 0.66 0.69 0.71 0.74 0.78 0.73

GEFSGL_prec_meanprecacc_096.txt.gz
Total_Precipitation_Accumulation
0.03 0.03 0.08 0.17 0.21 0.28 0.42 0.40 0.25 0.19 0.18 0.17 0.18 0.19 0.21 0.24 0.33 0.50 0.70 0.82 0.93 0.98 1.01 1.05 1.09 1.17 1.20 1.12 1.17 1.23 1.33 1.46 1.33 1.07 1.11 1.23 1.09 0.83 0.66 0.59 0.52 0.52 0.50
0.02 0.02 0.06 0.15 0.20 0.23 0.31 0.34 0.26 0.21 0.18 0.16 0.15 0.14 0.13 0.16 0.25 0.42 0.59 0.75 0.90 1.02 1.04 1.06 0.97 0.97 1.08 1.12 1.16 1.20 1.23 1.36 1.30 1.20 1.16 1.26 1.24 1.07 0.87 0.67 0.51 0.43 0.44
0.02 0.03 0.05 0.07 0.08 0.10 0.12 0.16 0.21 0.23 0.24 0.21 0.19 0.19 0.22 0.28 0.36 0.45 0.52 0.64 0.80 0.89 0.93 0.91 0.88 0.91 0.92 1.02 1.08 1.11 1.12 1.13 1.20 1.21 1.21 1.32 1.34 1.19 0.96 0.76 0.58 0.52 0.48
0.02 0.04 0.04 0.05 0.05 0.05 0.08 0.12 0.18 0.21 0.23 0.21 0.21 0.26 0.32 0.40 0.43 0.43 0.46 0.54 0.60 0.67 0.72 0.71 0.70 0.76 0.82 0.88 0.91 0.93 0.99 1.04 1.10 1.12 1.20 1.32 1.36 1.34 1.13 0.89 0.69 0.57 0.53
0.05 0.09 0.09 0.07 0.06 0.06 0.08 0.10 0.13 0.14 0.14 0.18 0.23 0.28 0.34 0.38 0.36 0.39 0.44 0.41 0.47 0.48 0.46 0.49 0.51 0.55 0.62 0.72 0.73 0.78 0.86 0.92 0.98 1.07 1.16 1.31 1.34 1.38 1.22 0.99 0.84 0.71 0.60
0.10 0.15 0.17 0.14 0.08 0.06 0.06 0.08 0.10 0.11 0.14 0.19 0.23 0.26 0.28 0.25 0.25 0.26 0.27 0.27 0.31 0.37 0.38 0.37 0.35 0.41 0.46 0.52 0.57 0.62 0.72 0.80 0.89 0.99 1.10 1.22 1.30 1.28 1.23 1.14 1.02 0.84 0.65
0.16 0.14 0.20 0.21 0.10 0.07 0.07 0.10 0.13 0.14 0.18 0.23 0.26 0.27 0.29 0.31 0.19 0.13 0.11 0.16 0.24 0.31 0.37 0.41 0.30 0.24 0.33 0.42 0.49 0.50 0.53 0.60 0.72 0.87 0.97 1.09 1.26 1.32 1.34 1.25 1.17 1.03 0.81
0.18 0.16 0.22 0.24 0.15 0.14 0.16 0.18 0.20 0.24 0.28 0.32 0.32 0.33 0.37 0.35 0.22 0.12 0.09 0.12 0.20 0.28 0.34 0.39 0.37 0.32 0.32 0.38 0.48 0.51 0.49 0.47 0.53 0.64 0.74 0.95 1.27 1.50 1.51 1.48 1.45 1.36 1.13
0.17 0.17 0.23 0.30 0.25 0.26 0.27 0.30 0.34 0.38 0.40 0.41 0.42 0.43 0.45 0.45 0.31 0.17 0.14 0.18 0.27 0.31 0.35 0.38 0.38 0.35 0.28 0.24 0.35 0.44 0.49 0.49 0.47 0.56 0.67 0.83 1.06 1.39 1.56 1.58 1.61 1.44 1.22
0.18 0.20 0.26 0.39 0.44 0.41 0.41 0.44 0.46 0.53 0.56 0.55 0.52 0.51 0.53 0.57 0.47 0.25 0.20 0.27 0.37 0.41 0.48 0.48 0.40 0.36 0.30 0.21 0.30 0.40 0.44 0.47 0.50 0.52 0.57 0.63 0.77 1.04 1.29 1.31 1.33 1.35 1.14
0.24 0.27 0.32 0.46 0.60 0.58 0.58 0.58 0.60 0.63 0.70 0.75 0.75 0.72 0.71 0.68 0.59 0.32 0.23 0.32 0.43 0.51 0.52 0.53 0.50 0.39 0.29 0.22 0.24 0.33 0.36 0.42 0.55 0.62 0.66 0.71 0.79 0.91 1.06 1.15 1.21 1.21 1.13
0.34 0.37 0.42 0.55 0.59 0.62 0.70 0.75 0.83 0.87 0.88 0.90 0.93 0.89 0.87 0.83 0.66 0.44 0.26 0.29 0.43 0.61 0.63 0.62 0.62 0.50 0.38 0.30 0.24 0.23 0.26 0.32 0.45 0.58 0.64 0.68 0.72 0.76 0.86 1.01 1.16 1.20 1.17
0.44 0.45 0.50 0.57 0.70 0.84 0.88 0.85 0.91 1.00 1.04 1.06 1.06 1.00 0.98 1.04 0.88 0.52 0.37 0.33 0.40 0.60 0.76 0.81 0.71 0.57 0.48 0.40 0.34 0.29 0.27 0.30 0.39 0.47 0.55 0.57 0.63 0.70 0.84 1.03 1.21 1.35 1.31
0.51 0.48 0.52 0.62 0.71 0.85 1.00 1.02 1.07 1.10 1.12 1.17 1.17 1.10 1.08 1.17 1.12 0.82 0.59 0.49 0.47 0.57 0.70 0.75 0.71 0.68 0.62 0.55 0.45 0.37 0.31 0.33 0.39 0.43 0.51 0.61 0.71 0.87 0.94 0.96 1.02 1.18 1.30
0.59 0.53 0.53 0.61 0.71 0.79 0.92 1.03 1.06 1.08 1.03 1.05 1.09 1.05 1.06 1.16 1.10 0.87 0.74 0.69 0.64 0.66 0.73 0.81 0.84 0.85 0.76 0.69 0.61 0.55 0.51 0.49 0.46 0.49 0.58 0.68 0.73 0.80 0.90 0.95 0.97 0.98 1.01
0.80 0.71 0.65 0.64 0.71 0.78 0.86 0.89 0.80 0.78 0.76 0.76 0.79 0.74 0.75 0.92 0.94 0.75 0.63 0.64 0.64 0.62 0.69 0.79 0.85 0.90 0.85 0.78 0.73 0.67 0.67 0.63 0.59 0.60 0.64 0.69 0.73 0.75 0.81 0.94 1.01 0.97 0.90
1.03 0.87 0.75 0.69 0.69 0.73 0.82 0.90 0.92 0.81 0.73 0.65 0.63 0.55 0.52 0.73 0.84 0.72 0.61 0.57 0.54 0.55 0.63 0.71 0.75 0.83 0.87 0.80 0.74 0.69 0.67 0.68 0.70 0.71 0.68 0.69 0.74 0.77 0.82 0.89 0.97 1.01 0.95
1.06 0.94 0.80 0.75 0.73 0.71 0.75 0.84 0.92 0.99 0.96 0.78 0.62 0.52 0.46 0.60 0.73 0.71 0.62 0.54 0.52 0.54 0.60 0.67 0.74 0.79 0.85 0.82 0.74 0.73 0.76 0.81 0.78 0.76 0.75 0.73 0.74 0.76 0.80 0.84 0.88 0.92 0.94
0.98 0.91 0.82 0.79 0.80 0.73 0.68 0.74 0.82 0.90 1.00 0.95 0.77 0.64 0.57 0.64 0.73 0.69 0.58 0.51 0.54 0.54 0.57 0.63 0.70 0.77 0.80 0.78 0.77 0.79 0.80 0.83 0.78 0.77 0.81 0.82 0.75 0.76 0.76 0.80 0.88 0.95 0.98
0.82 0.67 0.65 0.72 0.73 0.70 0.68 0.72 0.81 0.89 0.97 0.95 0.84 0.72 0.62 0.65 0.74 0.73 0.64 0.59 0.58 0.55 0.53 0.59 0.67 0.71 0.75 0.77 0.82 0.85 0.82 0.85 0.87 0.80 0.80 0.85 0.77 0.73 0.72 0.72 0.81 0.84 0.83
0.70 0.57 0.47 0.52 0.62 0.67 0.70 0.76 0.87 0.94 0.97 0.90 0.77 0.63 0.55 0.52 0.62 0.63 0.64 0.65 0.62 0.59 0.59 0.58 0.62 0.66 0.67 0.73 0.79 0.83 0.82 0.84 0.87 0.80 0.77 0.83 0.79 0.76 0.76 0.72 0.73 0.83 0.83
0.66 0.55 0.46 0.47 0.53 0.58 0.68 0.80 0.89 0.90 0.85 0.79 0.72 0.63 0.58 0.55 0.60 0.61 0.65 0.65 0.61 0.59 0.55 0.55 0.57 0.62 0.65 0.67 0.71 0.76 0.78 0.79 0.81 0.80 0.77 0.80 0.80 0.77 0.77 0.76 0.74 0.82 0.88
0.58 0.45 0.37 0.37 0.41 0.44 0.57 0.75 0.81 0.75 0.67 0.65 0.65 0.63 0.63 0.63 0.61 0.62 0.64 0.63 0.61 0.57 0.53 0.55 0.57 0.60 0.65 0.63 0.61 0.65 0.70 0.70 0.67 0.70 0.77 0.78 0.80 0.80 0.79 0.80 0.79 0.79 0.85
0.52 0.39 0.28 0.25 0.29 0.39 0.54 0.71 0.72 0.63 0.59 0.60 0.60 0.62 0.62 0.61 0.59 0.60 0.62 0.63 0.62 0.60 0.57 0.56 0.56 0.55 0.57 0.61 0.58 0.55 0.55 0.52 0.52 0.58 0.67 0.73 0.77 0.83 0.81 0.80 0.81 0.76 0.83
0.48 0.39 0.30 0.26 0.29 0.42 0.60 0.70 0.62 0.55 0.54 0.55 0.52 0.55 0.59 0.60 0.61 0.62 0.61 0.64 0.63 0.65 0.63 0.58 0.56 0.53 0.48 0.47 0.48 0.45 0.41 0.35 0.35 0.45 0.57 0.68 0.71 0.77 0.78 0.76 0.80 0.81 0.82
0.45 0.41 0.35 0.31 0.35 0.47 0.59 0.63 0.57 0.53 0.55 0.53 0.51 0.53 0.58 0.61 0.61 0.59 0.59 0.59 0.59 0.58 0.52 0.48 0.45 0.45 0.43 0.41 0.36 0.31 0.25 0.24 0.26 0.32 0.44 0.57 0.66 0.71 0.75 0.77 0.80 0.85 0.80

GEFSGL_prec_meanprecacc_102.txt.gz
Total_Precipitation_Accumulation
0.05 0.06 0.11 0.19 0.22 0.29 0.43 0.41 0.25 0.20 0.18 0.17 0.18 0.20 0.21 0.24 0.33 0.50 0.70 0.82 0.93 0.98 1.01 1.06 1.09 1.17 1.20 1.12 1.17 1.23 1.33 1.46 1.33 1.07 1.11 1.23 1.09 0.84 0.66 0.59 0.52 0.52 0.50
0.03 0.05 0.08 0.17 0.21 0.25 0.32 0.34 0.27 0.21 0.18 0.16 0.15 0.14 0.13 0.16 0.25 0.42 0.59 0.75 0.90 1.02 1.05 1.06 0.97 0.98 1.09 1.13 1.16 1.20 1.24 1.37 1.31 1.20 1.16 1.26 1.24 1.07 0.88 0.68 0.51 0.43 0.44
0.04 0.06 0.07 0.08 0.09 0.11 0.13 0.17 0.21 0.24 0.25 0.22 0.19 0.19 0.23 0.28 0.36 0.45 0.52 0.64 0.80 0.89 0.93 0.91 0.88 0.92 0.93 1.03 1.09 1.11 1.13 1.13 1.20 1.22 1.21 1.33 1.34 1.19 0.96 0.76 0.58 0.53 0.48
0.06 0.07 0.08 0.07 0.07 0.07 0.10 0.14 0.19 0.23 0.24 0.23 0.23 0.26 0.32 0.40 0.43 0.43 0.46 0.54 0.60 0.67 0.72 0.71 0.70 0.76 0.82 0.88 0.91 0.94 0.99 1.05 1.10 1.12 1.20 1.33 1.36 1.34 1.13 0.89 0.69 0.57 0.53
0.13 0.15 0.15 0.13 0.12 0.11 0.13 0.15 0.17 0.18 0.17 0.21 0.25 0.29 0.34 0.38 0.36 0.39 0.44 0.41 0.47 0.48 0.46 0.49 0.52 0.55 0.62 0.72 0.73 0.78 0.87 0.93 0.98 1.07 1.16 1.31 1.34 1.38 1.23 1.00 0.84 0.71 0.61
0.18 0.24 0.24 0.21 0.14 0.10 0.11 0.13 0.17 0.17 0.18 0.22 0.25 0.28 0.29 0.25 0.25 0.26 0.27 0.27 0.31 0.37 0.38 0.37 0.35 0.41 0.46 0.52 0.57 0.62 0.72 0.80 0.89 0.99 1.10 1.22 1.31 1.28 1.24 1.15 1.02 0.84 0.65
0.21 0.21 0.28 0.31 0.20 0.14 0.13 0.14 0.17 0.19 0.22 0.27 0.30 0.32 0.32 0.33 0.20 0.13 0.11 0.16 0.24 0.31 0.38 0.41 0.30 0.24 0.33 0.42 0.49 0.50 0.53 0.60 0.72 0.87 0.97 1.09 1.26 1.32 1.35 1.26 1.19 1.05 0.82
0.23 0.21 0.28 0.33 0.26 0.24 0.25 0.25 0.26 0.30 0.33 0.37 0.38 0.39 0.43 0.38 0.23 0.13 0.10 0.12 0.20 0.28 0.34 0.39 0.38 0.32 0.33 0.38 0.49 0.52 0.50 0.47 0.53 0.64 0.74 0.95 1.28 1.50 1.52 1.49 1.46 1.36 1.14
0.25 0.25 0.29 0.37 0.34 0.36 0.37 0.39 0.44 0.48 0.49 0.50 0.51 0.50 0.51 0.49 0.34 0.20 0.17 0.19 0.27 0.31 0.35 0.38 0.39 0.36 0.29 0.25 0.37 0.46 0.50 0.50 0.48 0.57 0.67 0.84 1.06 1.39 1.56 1.58 1.62 1.44 1.22
0.26 0.28 0.34 0.47 0.54 0.51 0.52 0.56 0.58 0.65 0.66 0.65 0.61 0.58 0.59 0.63 0.51 0.30 0.25 0.30 0.40 0.43 0.50 0.50 0.41 0.38 0.31 0.23 0.33 0.43 0.46 0.48 0.52 0.55 0.59 0.64 0.77 1.04 1.29 1.32 1.33 1.36 1.15
0.31 0.35 0.43 0.61 0.79 0.77 0.73 0.72 0.74 0.76 0.81 0.85 0.84 0.80 0.78 0.74 0.64 0.37 0.27 0.35 0.46 0.54 0.53 0.54 0.51 0.42 0.31 0.24 0.25 0.35 0.38 0.44 0.58 0.65 0.68 0.74 0.82 0.93 1.08 1.17 1.22 1.22 1.14
0.39 0.42 0.49 0.65 0.73 0.78 0.87 0.90 0.96 0.98 0.98 0.99 1.02 0.97 0.94 0.91 0.73 0.50 0.31 0.33 0.47 0.63 0.65 0.63 0.63 0.51 0.38 0.31 0.25 0.23 0.26 0.32 0.46 0.59 0.66 0.69 0.73 0.77 0.87 1.03 1.20 1.24 1.20
0.53 0.53 0.56 0.64 0.77 0.93 0.97 0.94 0.99 1.07 1.09 1.11 1.11 1.05 1.03 1.10 0.96 0.61 0.44 0.39 0.45 0.64 0.78 0.81 0.71 0.57 0.49 0.40 0.35 0.29 0.27 0.30 0.40 0.48 0.55 0.58 0.64 0.71 0.86 1.06 1.25 1.42 1.37
0.60 0.59 0.61 0.68 0.77 0.91 1.05 1.06 1.12 1.15 1.17 1.22 1.23 1.15 1.15 1.25 1.20 0.91 0.68 0.57 0.54 0.61 0.72 0.76 0.72 0.68 0.62 0.55 0.45 0.38 0.31 0.33 0.39 0.44 0.52 0.62 0.73 0.90 0.98 0.99 1.07 1.24 1.37
0.68 0.62 0.62 0.67 0.77 0.84 0.97 1.08 1.11 1.14 1.09 1.11 1.15 1.12 1.14 1.24 1.19 0.96 0.81 0.74 0.69 0.70 0.76 0.83 0.86 0.87 0.78 0.70 0.63 0.57 0.54 0.53 0.49 0.52 0.61 0.72 0.77 0.85 0.94 1.00 1.04 1.06 1.09
0.84 0.74 0.68 0.67 0.74 0.81 0.90 0.93 0.84 0.82 0.79 0.79 0.82 0.77 0.78 0.94 0.97 0.77 0.65 0.67 0.67 0.65 0.72 0.81 0.87 0.92 0.88 0.80 0.76 0.71 0.71 0.68 0.65 0.68 0.73 0.78 0.82 0.83 0.89 1.03 1.13 1.11 1.01
1.05 0.89 0.77 0.71 0.72 0.75 0.85 0.92 0.95 0.84 0.75 0.68 0.64 0.56 0.53 0.73 0.84 0.73 0.62 0.58 0.55 0.56 0.64 0.72 0.77 0.85 0.90 0.83 0.77 0.71 0.71 0.71 0.76 0.79 0.78 0.81 0.86 0.90 0.95 1.02 1.13 1.18 1.10
1.09 0.97 0.82 0.77 0.75 0.72 0.76 0.85 0.93 1.00 0.96 0.79 0.62 0.52 0.46 0.60 0.73 0.71 0.62 0.54 0.52 0.55 0.61 0.68 0.75 0.81 0.88 0.85 0.77 0.77 0.80 0.85 0.84 0.84 0.85 0.86 0.90 0.94 0.98 1.01 1.05 1.09 1.10
0.99 0.92 0.83 0.80 0.80 0.73 0.68 0.74 0.82 0.90 1.00 0.95 0.77 0.64 0.57 0.64 0.73 0.69 0.59 0.52 0.55 0.55 0.58 0.65 0.72 0.80 0.83 0.81 0.81 0.83 0.85 0.88 0.83 0.84 0.90 0.94 0.90 0.93 0.92 0.96 1.03 1.11 1.15
0.82 0.68 0.65 0.72 0.73 0.70 0.68 0.72 0.81 0.89 0.97 0.96 0.84 0.72 0.62 0.65 0.74 0.74 0.64 0.60 0.59 0.56 0.55 0.61 0.69 0.74 0.78 0.81 0.87 0.90 0.88 0.92 0.94 0.88 0.90 0.97 0.90 0.89 0.87 0.88 0.98 1.03 1.03
0.70 0.57 0.47 0.52 0.62 0.67 0.70 0.76 0.87 0.94 0.97 0.90 0.77 0.64 0.55 0.52 0.62 0.64 0.66 0.67 0.64 0.62 0.62 0.61 0.65 0.70 0.72 0.78 0.86 0.91 0.92 0.94 0.97 0.92 0.90 0.97 0.94 0.93 0.95 0.91 0.91 1.01 1.01
0.66 0.55 0.46 0.47 0.53 0.58 0.68 0.80 0.89 0.90 0.85 0.80 0.72 0.63 0.58 0.56 0.61 0.63 0.67 0.66 0.63 0.61 0.57 0.58 0.61 0.68 0.72 0.75 0.80 0.86 0.89 0.90 0.93 0.95 0.93 0.97 0.99 0.96 0.97 0.95 0.92 1.00 1.06
0.59 0.45 0.37 0.37 0.41 0.44 0.57 0.75 0.81 0.75 0.68 0.66 0.66 0.63 0.63 0.64 0.62 0.64 0.66 0.64 0.62 0.59 0.55 0.58 0.61 0.65 0.72 0.72 0.71 0.77 0.82 0.83 0.82 0.87 0.96 0.96 0.98 0.98 0.98 0.99 0.97 0.97 1.03
0.52 0.39 0.28 0.25 0.30 0.39 0.55 0.72 0.73 0.64 0.60 0.62 0.61 0.63 0.63 0.63 0.62 0.62 0.64 0.65 0.64 0.63 0.60 0.61 0.61 0.59 0.62 0.68 0.67 0.65 0.65 0.63 0.63 0.71 0.81 0.90 0.94 1.01 0.99 0.97 0.98 0.92 0.99
0.49 0.39 0.31 0.26 0.29 0.42 0.61 0.71 0.64 0.57 0.55 0.56 0.53 0.57 0.61 0.63 0.63 0.64 0.64 0.66 0.66 0.68 0.66 0.62 0.60 0.57 0.53 0.53 0.56 0.54 0.50 0.42 0.41 0.51 0.63 0.75 0.80 0.89 0.93 0.91 0.96 0.96 0.97
0.45 0.41 0.35 0.32 0.36 0.48 0.60 0.64 0.58 0.54 0.57 0.54 0.53 0.55 0.60 0.64 0.64 0.62 0.62 0.63 0.63 0.61 0.54 0.50 0.48 0.49 0.48 0.46 0.42 0.36 0.31 0.28 0.30 0.36 0.47 0.61 0.71 0.78 0.84 0.88 0.92 0.98 0.93

GEFSGL_prec_meanprecacc_108.txt.gz
Total_Precipitation_Accumulation
0.08 0.07 0.11 0.20 0.23 0.30 0.44 0.41 0.26 0.20 0.18 0.17 0.18 0.20 0.21 0.24 0.33 0.50 0.70 0.82 0.93 0.98 1.01 1.06 1.09 1.17 1.20 1.12 1.17 1.23 1.33 1.46 1.33 1.07 1.11 1.23 1.09 0.84 0.66 0.59 0.52 0.52 0.50
0.10 0.09 0.11 0.18 0.23 0.26 0.32 0.35 0.28 0.22 0.19 0.17 0.16 0.15 0.13 0.16 0.25 0.42 0.59 0.75 0.90 1.02 1.05 1.06 0.97 0.98 1.09 1.13 1.16 1.20 1.24 1.37 1.31 1.20 1.16 1.26 1.24 1.07 0.88 0.68 0.51 0.43 0.44
0.16 0.19 0.16 0.13 0.12 0.13 0.16 0.19 0.23 0.25 0.26 0.23 0.20 0.19 0.23 0.28 0.36 0.46 0.52 0.65 0.80 0.90 0.93 0.91 0.88 0.92 0.93 1.03 1.09 1.11 1.13 1.13 1.20 1.22 1.21 1.33 1.34 1.19 0.96 0.76 0.58 0.53 0.48
0.19 0.19 0.18 0.16 0.15 0.16 0.17 0.19 0.23 0.26 0.27 0.26 0.25 0.29 0.35 0.41 0.44 0.44 0.47 0.55 0.61 0.67 0.73 0.71 0.70 0.76 0.82 0.88 0.91 0.94 0.99 1.05 1.10 1.12 1.20 1.33 1.36 1.34 1.13 0.89 0.69 0.57 0.53
0.29 0.29 0.23 0.18 0.17 0.18 0.19 0.20 0.22 0.23 0.22 0.27 0.31 0.34 0.39 0.42 0.40 0.43 0.47 0.43 0.48 0.48 0.46 0.50 0.52 0.55 0.62 0.72 0.73 0.78 0.87 0.93 0.98 1.07 1.16 1.31 1.34 1.38 1.23 1.00 0.84 0.71 0.61
0.28 0.35 0.37 0.32 0.27 0.24 0.26 0.25 0.26 0.26 0.27 0.31 0.34 0.37 0.38 0.35 0.33 0.33 0.33 0.31 0.34 0.38 0.39 0.37 0.36 0.41 0.46 0.52 0.57 0.63 0.72 0.80 0.89 1.00 1.10 1.22 1.31 1.28 1.24 1.15 1.03 0.85 0.66
0.33 0.33 0.42 0.49 0.43 0.43 0.44 0.39 0.37 0.35 0.36 0.39 0.41 0.42 0.44 0.46 0.33 0.25 0.20 0.23 0.28 0.34 0.39 0.42 0.30 0.24 0.33 0.43 0.50 0.51 0.54 0.60 0.73 0.88 0.97 1.09 1.26 1.32 1.36 1.27 1.19 1.05 0.82
0.34 0.32 0.42 0.51 0.47 0.47 0.48 0.46 0.50 0.55 0.57 0.58 0.57 0.55 0.57 0.53 0.38 0.26 0.19 0.18 0.24 0.30 0.36 0.40 0.39 0.33 0.34 0.39 0.50 0.53 0.51 0.48 0.55 0.66 0.75 0.96 1.28 1.51 1.53 1.50 1.46 1.37 1.14
0.41 0.45 0.52 0.61 0.63 0.64 0.61 0.62 0.68 0.75 0.78 0.81 0.84 0.81 0.75 0.68 0.50 0.32 0.26 0.27 0.34 0.38 0.40 0.40 0.41 0.37 0.30 0.27 0.38 0.47 0.51 0.51 0.49 0.59 0.69 0.85 1.08 1.41 1.58 1.60 1.63 1.45 1.23
0.51 0.54 0.63 0.77 0.85 0.85 0.83 0.85 0.88 0.95 0.98 0.96 0.88 0.80 0.76 0.76 0.63 0.40 0.34 0.38 0.46 0.49 0.55 0.53 0.44 0.40 0.33 0.26 0.35 0.45 0.48 0.50 0.55 0.57 0.61 0.65 0.78 1.05 1.31 1.33 1.35 1.38 1.16
0.50 0.55 0.63 0.83 1.04 1.04 1.06 1.07 1.06 1.06 1.10 1.11 1.06 1.00 0.97 0.93 0.80 0.50 0.39 0.45 0.52 0.58 0.56 0.57 0.54 0.45 0.34 0.26 0.27 0.37 0.39 0.45 0.59 0.66 0.69 0.74 0.82 0.94 1.09 1.17 1.23 1.23 1.15
0.60 0.65 0.73 0.90 0.98 1.04 1.16 1.19 1.21 1.19 1.17 1.18 1.23 1.17 1.14 1.10 0.91 0.67 0.47 0.48 0.59 0.73 0.72 0.69 0.68 0.56 0.42 0.33 0.26 0.24 0.27 0.33 0.47 0.60 0.66 0.69 0.74 0.77 0.87 1.03 1.21 1.25 1.21
0.68 0.72 0.82 0.92 1.01 1.12 1.18 1.14 1.17 1.24 1.26 1.28 1.28 1.23 1.21 1.26 1.12 0.77 0.62 0.57 0.63 0.78 0.89 0.90 0.78 0.62 0.52 0.42 0.36 0.31 0.29 0.31 0.40 0.48 0.55 0.58 0.64 0.72 0.87 1.07 1.26 1.44 1.39
0.65 0.65 0.74 0.90 0.95 1.03 1.15 1.16 1.23 1.28 1.31 1.37 1.38 1.29 1.28 1.38 1.34 1.05 0.81 0.70 0.65 0.71 0.80 0.84 0.79 0.74 0.66 0.57 0.47 0.39 0.33 0.34 0.41 0.44 0.52 0.62 0.73 0.90 0.99 1.00 1.09 1.27 1.41
0.73 0.68 0.70 0.78 0.88 0.94 1.06 1.16 1.18 1.19 1.15 1.17 1.22 1.19 1.20 1.31 1.25 1.02 0.87 0.80 0.74 0.75 0.81 0.87 0.89 0.90 0.81 0.73 0.65 0.59 0.56 0.55 0.51 0.53 0.62 0.73 0.78 0.86 0.96 1.03 1.08 1.11 1.14
0.87 0.78 0.74 0.74 0.81 0.87 0.96 0.97 0.88 0.86 0.83 0.82 0.85 0.80 0.80 0.96 0.98 0.79 0.66 0.68 0.68 0.66 0.73 0.82 0.89 0.94 0.89 0.82 0.78 0.72 0.72 0.69 0.66 0.70 0.75 0.81 0.85 0.87 0.93 1.06 1.18 1.17 1.07
1.06 0.91 0.80 0.74 0.74 0.77 0.87 0.94 0.96 0.85 0.76 0.69 0.65 0.56 0.53 0.73 0.84 0.73 0.62 0.58 0.55 0.56 0.64 0.72 0.77 0.85 0.91 0.84 0.78 0.73 0.72 0.73 0.78 0.81 0.81 0.84 0.90 0.94 0.99 1.07 1.17 1.23 1.14
1.09 0.97 0.83 0.79 0.77 0.74 0.78 0.86 0.94 1.00 0.97 0.79 0.62 0.52 0.46 0.60 0.73 0.71 0.62 0.54 0.52 0.55 0.61 0.68 0.76 0.81 0.88 0.85 0.78 0.78 0.81 0.86 0.86 0.87 0.89 0.90 0.95 1.00 1.03 1.06 1.09 1.14 1.13
0.99 0.92 0.83 0.80 0.80 0.73 0.68 0.75 0.82 0.90 1.00 0.95 0.77 0.65 0.57 0.64 0.73 0.69 0.59 0.52 0.55 0.55 0.58 0.65 0.73 0.80 0.84 0.82 0.82 0.84 0.86 0.89 0.84 0.86 0.91 0.95 0.93 0.97 0.96 1.01 1.08 1.16 1.20
0.82 0.68 0.65 0.72 0.73 0.70 0.68 0.72 0.81 0.89 0.97 0.96 0.84 0.72 0.62 0.65 0.74 0.74 0.64 0.60 0.59 0.56 0.55 0.61 0.69 0.74 0.79 0.82 0.89 0.92 0.90 0.94 0.95 0.90 0.92 0.99 0.93 0.92 0.92 0.93 1.04 1.09 1.09
0.70 0.57 0.47 0.52 0.63 0.67 0.70 0.76 0.87 0.94 0.97 0.90 0.77 0.64 0.55 0.52 0.62 0.64 0.66 0.68 0.65 0.63 0.63 0.62 0.67 0.71 0.73 0.80 0.88 0.93 0.94 0.97 1.00 0.95 0.94 1.01 0.99 0.99 1.01 0.98 0.99 1.08 1.09
0.66 0.55 0.46 0.47 0.54 0.58 0.68 0.80 0.89 0.90 0.85 0.80 0.72 0.63 0.59 0.56 0.61 0.63 0.67 0.67 0.64 0.62 0.59 0.60 0.63 0.69 0.73 0.77 0.82 0.88 0.91 0.91 0.95 0.98 0.97 1.01 1.03 1.00 1.03 1.00 0.98 1.06 1.14
0.59 0.45 0.37 0.37 0.41 0.44 0.57 0.75 0.81 0.75 0.68 0.66 0.66 0.64 0.64 0.65 0.63 0.64 0.66 0.65 0.63 0.60 0.56 0.59 0.63 0.67 0.73 0.74 0.73 0.79 0.84 0.85 0.84 0.90 0.99 0.99 1.01 1.02 1.03 1.05 1.05 1.06 1.13
0.52 0.39 0.28 0.25 0.30 0.39 0.55 0.72 0.73 0.65 0.60 0.62 0.62 0.64 0.64 0.64 0.62 0.63 0.64 0.66 0.65 0.63 0.61 0.62 0.62 0.60 0.63 0.69 0.68 0.66 0.67 0.64 0.64 0.73 0.83 0.92 0.97 1.05 1.04 1.03 1.05 1.02 1.09
0.49 0.40 0.31 0.26 0.29 0.43 0.61 0.71 0.64 0.57 0.56 0.57 0.54 0.58 0.63 0.64 0.65 0.65 0.65 0.67 0.68 0.70 0.67 0.62 0.61 0.58 0.53 0.54 0.57 0.55 0.51 0.43 0.43 0.53 0.65 0.77 0.82 0.92 0.96 0.96 1.03 1.04 1.04
0.45 0.42 0.36 0.32 0.36 0.48 0.61 0.65 0.59 0.55 0.58 0.55 0.54 0.57 0.61 0.65 0.65 0.63 0.63 0.64 0.65 0.63 0.56 0.51 0.49 0.50 0.49 0.47 0.43 0.38 0.32 0.30 0.31 0.38 0.49 0.62 0.72 0.80 0.86 0.91 0.95 1.02 0.99

GEFSGL_prec_meanprecacc_114.txt.gz
Total_Precipitation_Accumulation
0.15 0.14 0.16 0.23 0.26 0.33 0.46 0.43 0.27 0.21 0.20 0.18 0.19 0.21 0.22 0.25 0.33 0.50 0.71 0.83 0.94 0.99 1.01 1.06 1.09 1.18 1.20 1.12 1.17 1.23 1.33 1.46 1.33 1.07 1.11 1.23 1.09 0.84 0.66 0.59 0.52 0.52 0.50
0.18 0.15 0.16 0.23 0.26 0.28 0.34 0.37 0.29 0.24 0.22 0.19 0.17 0.16 0.14 0.17 0.26 0.43 0.60 0.76 0.91 1.02 1.05 1.06 0.97 0.98 1.09 1.13 1.16 1.20 1.24 1.37 1.31 1.20 1.16 1.26 1.24 1.07 0.88 0.68 0.51 0.43 0.44
0.23 0.26 0.21 0.17 0.15 0.15 0.18 0.22 0.25 0.28 0.29 0.26 0.23 0.21 0.25 0.30 0.37 0.47 0.53 0.65 0.81 0.90 0.93 0.92 0.88 0.92 0.93 1.03 1.09 1.11 1.13 1.13 1.20 1.22 1.21 1.33 1.34 1.19 0.96 0.76 0.58 0.53 0.48
0.27 0.25 0.22 0.20 0.19 0.20 0.21 0.22 0.26 0.28 0.29 0.28 0.27 0.31 0.37 0.43 0.46 0.46 0.49 0.56 0.62 0.68 0.73 0.72 0.70 0.76 0.82 0.88 0.91 0.94 0.99 1.05 1.10 1.12 1.20 1.33 1.36 1.34 1.13 0.89 0.69 0.57 0.53
0.36 0.34 0.27 0.22 0.22 0.24 0.24 0.24 0.26 0.27 0.27 0.31 0.35 0.37 0.41 0.44 0.43 0.46 0.50 0.45 0.51 0.50 0.48 0.51 0.53 0.56 0.63 0.72 0.74 0.78 0.87 0.93 0.98 1.08 1.16 1.31 1.34 1.39 1.23 1.00 0.84 0.71 0.61
0.34 0.40 0.43 0.38 0.32 0.31 0.33 0.30 0.32 0.31 0.33 0.38 0.40 0.41 0.42 0.38 0.36 0.36 0.36 0.34 0.37 0.41 0.41 0.39 0.38 0.43 0.48 0.53 0.58 0.63 0.73 0.81 0.90 1.00 1.10 1.22 1.31 1.29 1.24 1.15 1.03 0.85 0.66
0.42 0.42 0.52 0.57 0.50 0.51 0.53 0.46 0.44 0.43 0.44 0.46 0.48 0.50 0.51 0.53 0.39 0.30 0.25 0.27 0.32 0.37 0.42 0.44 0.32 0.26 0.35 0.44 0.51 0.52 0.54 0.61 0.74 0.88 0.98 1.09 1.26 1.33 1.36 1.27 1.19 1.05 0.82
0.41 0.41 0.51 0.62 0.57 0.57 0.58 0.56 0.60 0.65 0.67 0.68 0.68 0.67 0.67 0.62 0.47 0.32 0.25 0.23 0.29 0.34 0.39 0.43 0.41 0.35 0.35 0.41 0.50 0.54 0.51 0.49 0.55 0.67 0.76 0.96 1.28 1.51 1.53 1.50 1.46 1.37 1.14
0.50 0.55 0.62 0.73 0.76 0.78 0.75 0.76 0.82 0.90 0.93 0.97 0.99 0.95 0.89 0.82 0.63 0.41 0.32 0.31 0.38 0.41 0.43 0.43 0.43 0.39 0.32 0.28 0.39 0.48 0.52 0.52 0.50 0.59 0.69 0.85 1.08 1.41 1.59 1.61 1.64 1.46 1.23
0.62 0.65 0.73 0.89 0.97 0.96 0.94 0.96 1.01 1.10 1.12 1.11 1.02 0.94 0.89 0.87 0.76 0.51 0.43 0.43 0.50 0.52 0.58 0.56 0.47 0.43 0.36 0.29 0.36 0.46 0.48 0.50 0.55 0.58 0.62 0.66 0.79 1.06 1.32 1.35 1.36 1.39 1.17
0.64 0.72 0.78 0.96 1.16 1.15 1.18 1.18 1.18 1.21 1.26 1.27 1.22 1.15 1.09 1.03 0.92 0.62 0.51 0.53 0.59 0.63 0.61 0.61 0.58 0.48 0.37 0.29 0.30 0.39 0.41 0.47 0.60 0.67 0.70 0.75 0.83 0.94 1.09 1.18 1.24 1.24 1.16
0.72 0.78 0.88 1.08 1.17 1.20 1.30 1.32 1.35 1.35 1.32 1.32 1.36 1.29 1.26 1.22 1.02 0.77 0.59 0.59 0.70 0.82 0.80 0.77 0.76 0.64 0.49 0.40 0.33 0.30 0.32 0.37 0.50 0.62 0.68 0.70 0.74 0.78 0.88 1.04 1.21 1.26 1.21
0.73 0.78 0.88 0.98 1.06 1.17 1.23 1.21 1.26 1.34 1.35 1.37 1.37 1.33 1.32 1.39 1.23 0.88 0.72 0.68 0.74 0.89 1.00 1.02 0.89 0.73 0.62 0.51 0.45 0.39 0.36 0.36 0.45 0.52 0.58 0.60 0.65 0.73 0.89 1.09 1.28 1.46 1.40
0.68 0.69 0.78 0.94 0.99 1.07 1.19 1.20 1.26 1.32 1.36 1.44 1.45 1.38 1.35 1.43 1.39 1.10 0.87 0.76 0.73 0.79 0.89 0.93 0.87 0.83 0.74 0.64 0.54 0.45 0.37 0.38 0.44 0.47 0.55 0.64 0.75 0.92 1.01 1.03 1.12 1.30 1.44
0.76 0.72 0.74 0.83 0.93 0.99 1.11 1.21 1.22 1.22 1.18 1.20 1.26 1.24 1.26 1.36 1.31 1.08 0.93 0.85 0.80 0.81 0.86 0.92 0.93 0.93 0.84 0.76 0.68 0.63 0.60 0.59 0.55 0.57 0.65 0.75 0.80 0.88 0.98 1.04 1.10 1.13 1.16
0.88 0.80 0.76 0.77 0.85 0.91 1.00 1.02 0.92 0.90 0.86 0.85 0.88 0.83 0.83 0.99 1.01 0.82 0.70 0.72 0.72 0.69 0.75 0.84 0.90 0.95 0.90 0.83 0.79 0.74 0.74 0.71 0.68 0.72 0.76 0.82 0.86 0.88 0.94 1.07 1.19 1.19 1.08
1.06 0.92 0.81 0.75 0.76 0.81 0.90 0.98 1.02 0.91 0.83 0.75 0.71 0.61 0.57 0.77 0.87 0.75 0.64 0.60 0.56 0.57 0.65 0.73 0.77 0.86 0.91 0.84 0.78 0.73 0.73 0.74 0.79 0.82 0.82 0.85 0.91 0.95 1.00 1.08 1.19 1.25 1.16
1.09 0.97 0.83 0.79 0.78 0.75 0.79 0.88 0.96 1.04 1.01 0.83 0.66 0.56 0.49 0.62 0.74 0.72 0.62 0.54 0.53 0.55 0.61 0.68 0.76 0.81 0.88 0.85 0.78 0.78 0.81 0.87 0.86 0.87 0.89 0.91 0.96 1.00 1.04 1.07 1.10 1.14 1.14
0.99 0.92 0.83 0.80 0.80 0.73 0.68 0.75 0.83 0.91 1.00 0.96 0.77 0.65 0.58 0.65 0.74 0.70 0.59 0.52 0.55 0.56 0.59 0.65 0.73 0.80 0.84 0.82 0.82 0.84 0.86 0.89 0.85 0.86 0.92 0.96 0.93 0.97 0.97 1.01 1.09 1.17 1.21
0.82 0.68 0.65 0.72 0.73 0.70 0.68 0.72 0.81 0.90 0.97 0.96 0.84 0.73 0.62 0.66 0.74 0.74 0.65 0.60 0.60 0.57 0.56 0.62 0.70 0.75 0.80 0.83 0.89 0.93 0.91 0.94 0.96 0.90 0.93 0.99 0.93 0.92 0.93 0.94 1.05 1.11 1.11
0.70 0.57 0.47 0.52 0.63 0.67 0.70 0.76 0.87 0.94 0.97 0.90 0.77 0.64 0.55 0.52 0.62 0.64 0.66 0.68 0.65 0.63 0.63 0.62 0.67 0.72 0.74 0.80 0.89 0.94 0.95 0.97 1.01 0.95 0.94 1.01 1.00 1.00 1.02 0.99 1.00 1.10 1.11
0.66 0.55 0.46 0.47 0.54 0.58 0.68 0.80 0.89 0.90 0.85 0.80 0.72 0.63 0.59 0.56 0.61 0.63 0.67 0.67 0.64 0.63 0.59 0.60 0.63 0.70 0.74 0.78 0.83 0.89 0.92 0.92 0.96 0.98 0.97 1.02 1.04 1.02 1.04 1.02 1.00 1.09 1.17
0.59 0.45 0.37 0.37 0.41 0.44 0.57 0.75 0.81 0.75 0.68 0.66 0.66 0.64 0.64 0.65 0.63 0.64 0.67 0.65 0.63 0.60 0.56 0.59 0.63 0.67 0.74 0.74 0.74 0.80 0.85 0.86 0.85 0.91 1.00 1.01 1.03 1.04 1.04 1.07 1.07 1.09 1.16
0.52 0.39 0.28 0.25 0.30 0.39 0.55 0.72 0.73 0.65 0.61 0.62 0.62 0.64 0.65 0.64 0.63 0.63 0.65 0.66 0.65 0.64 0.61 0.62 0.62 0.60 0.64 0.70 0.69 0.66 0.67 0.65 0.65 0.74 0.85 0.94 0.98 1.06 1.05 1.05 1.07 1.04 1.12
0.49 0.40 0.31 0.26 0.29 0.43 0.61 0.71 0.64 0.57 0.56 0.57 0.55 0.59 0.63 0.65 0.66 0.66 0.65 0.68 0.68 0.70 0.68 0.63 0.62 0.59 0.54 0.55 0.57 0.56 0.52 0.44 0.44 0.54 0.66 0.78 0.84 0.93 0.97 0.97 1.04 1.05 1.06
0.45 0.42 0.36 0.32 0.36 0.48 0.61 0.65 0.59 0.55 0.58 0.56 0.55 0.57 0.62 0.66 0.66 0.64 0.64 0.65 0.65 0.63 0.57 0.53 0.51 0.52 0.51 0.49 0.44 0.39 0.34 0.32 0.34 0.40 0.50 0.63 0.74 0.82 0.88 0.92 0.97 1.03 1.00